Temperature
13 13 12 12 12 12 12 12 11 11 11 11 11 11 11 10 10 10 10 9 9 9 9 9 9 9 9 9 9 9 9 9 9 9 9 9 9 9 9 9 9 9 9
13 12 12 12 12 12 12 11 11 11 11 11 11 10 10 10 10 10 9 9 9 9 9 9 9 9 9 9 9 9 9 9 9 9 9 8 8 8 8 8 8 8 8
12 12 12 11 11 11 11 11 11 11 11 10 10 10 10 10 9 9 9 9 9 9 9 9 9 8 8 8 8 8 8 8 8 8 8 8 8 8 8 8 8 8 8
12 11 11 11 11 11 11 11 10 10 10 10 10 10 10 9 9 9 9 9 9 9 9 8 8 8 8 8 8 8 8 8 8 8 8 8 8 8 8 8 8 8 8
11 11 11 11 11 11 10 10 10 10 10 10 9 9 9 9 9 9 9 8 8 8 8 8 8 8 8 8 8 8 8 8 8 8 8 8 8 8 8 7 7 8 8
11 11 11 11 10 10 10 10 10 9 9 9 9 9 9 9 9 9 9 8 8 8 8 8 8 8 8 8 8 8 7 7 7 7 7 7 7 7 7 7 7 7 7
11 10 10 10 10 10 10 9 9 9 9 9 9 9 9 9 9 9 8 8 8 8 8 7 7 7 7 7 7 7 7 7 7 7 7 7 7 7 7 7 7 7 7
10 10 10 10 10 10 9 9 9 9 9 9 9 8 8 8 8 8 8 8 7 7 7 7 7 7 7 7 7 7 7 7 7 7 7 7 7 7 7 7 7 7 7
10 10 10 10 9 9 9 9 9 8 8 8 8 8 8 8 8 8 8 7 7 7 7 7 7 7 7 7 7 7 7 7 7 7 7 7 7 7 7 7 7 6 6
10 9 9 9 9 9 9 8 8 8 8 8 8 8 8 8 8 8 7 7 7 7 7 7 7 7 7 7 6 6 6 6 6 6 6 6 6 6 6 6 6 6 6
9 9 8 8 8 8 8 8 8 8 8 8 8 8 7 7 7 7 7 7 6 6 6 6 6 6 6 6 6 6 6 6 6 6 6 6 6 6 6 6 6 6 6
8 8 8 8 8 8 8 8 8 8 7 7 7 7 7 7 7 7 7 7 6 6 6 6 6 6 6 6 6 6 6 6 6 5 5 6 5 5 6 5 6 5 5
8 8 8 7 7 7 7 7 7 7 7 7 7 7 7 6 6 6 6 6 6 6 5 6 6 6 6 6 6 6 5 5 5 5 5 5 5 5 5 5 5 5 5
8 7 7 7 7 7 6 7 7 7 7 6 6 6 6 6 6 6 6 5 5 5 5 5 5 5 5 5 5 5 5 5 5 5 5 5 5 5 5 5 5 5 5
7 7 7 6 6 6 6 6 6 6 6 6 6 6 6 6 6 6 5 5 5 5 5 5 5 5 5 5 5 5 5 5 5 5 4 4 4 4 4 4 4 4 4
7 6 6 6 6 6 6 6 6 6 6 6 6 6 5 5 5 5 5 5 5 5 4 4 4 4 4 4 4 4 4 4 4 4 4 4 4 4 4 4 4 4 4
6 6 6 6 6 6 6 6 6 6 5 5 5 5 5 5 5 5 5 5 5 4 4 4 4 4 4 4 4 4 4 4 4 4 4 4 4 4 4 3 3 3 3
6 6 6 6 6 5 5 5 5 5 5 5 5 5 5 5 5 5 4 4 4 4 4 3 3 3 3 3 3 3 3 3 4 4 4 4 3 3 3 3 3 3 3
6 6 5 5 5 5 5 5 5 5 4 4 4 4 4 4 4 4 4 3 3 3 3 3 3 3 3 3 3 3 3 3 3 3 3 3 3 3 3 3 3 3 3
5 5 5 5 5 5 5 4 4 4 4 4 4 4 3 3 3 3 3 3 3 3 3 3 3 3 3 3 3 3 3 3 3 3 3 3 3 3 3 3 3 2 2
5 5 5 4 4 4 4 4 4 4 4 4 3 3 3 3 3 3 3 3 3 2 2 3 3 3 3 3 3 3 2 2 2 2 2 3 3 3 3 2 2 2 2
5 5 4 4 4 4 4 4 3 3 3 3 3 3 3 3 2 2 2 2 2 2 2 2 2 2 2 2 2 2 2 2 2 2 2 2 2 2 2 2 2 2 1
5 4 4 4 4 4 3 3 3 3 3 3 2 2 2 2 2 2 2 2 2 2 2 2 2 2 2 2 2 2 2 2 2 2 2 2 2 2 2 1 1 1 1
4 4 4 4 3 3 3 3 3 2 2 2 2 2 2 2 2 2 2 2 2 2 2 2 2 2 2 2 2 2 2 2 2 2 2 1 1 1 1 1 1 1 1
4 4 3 3 3 3 3 2 2 2 2 2 2 2 2 1 1 1 1 1 1 1 1 1 1 1 1 1 1 1 2 2 1 1 1 1 1 1 1 1 1 1 0
4 3 3 3 3 3 2 2 2 2 2 1 1 1 1 1 1 1 1 1 1 1 1 1 1 1 1 1 1 1 1 1 1 1 1 1 1 0 0 0 0 0 0
Wind_Speed
6 6 5 5 4 4 3 3 2 2 2 1 1 1 2 2 2 2 2 2 2 2 2 3 3 2 2 2 2 3 3 3 4 4 3 3 3 3 2 3 3 3 2
5 6 5 5 4 4 3 3 2 2 1 1 1 1 1 2 2 2 2 2 2 2 2 3 3 2 2 2 2 2 2 3 3 4 4 3 3 3 3 4 3 3 3
5 5 5 5 4 4 4 3 2 2 2 1 1 1 1 2 2 2 2 2 3 3 2 2 3 2 3 2 2 2 2 2 2 3 3 3 3 3 3 4 4 3 4
5 5 5 5 4 4 3 3 3 2 2 2 1 1 1 1 2 2 2 3 3 2 2 2 2 2 3 3 2 2 2 2 2 2 3 3 3 3 3 3 4 3 4
4 4 4 4 3 3 3 3 2 2 2 2 1 1 1 1 2 2 2 3 3 2 2 2 2 3 4 4 3 3 2 2 2 2 2 3 3 3 3 3 4 4 4
4 3 3 3 3 3 3 3 2 2 2 1 1 1 1 1 2 2 3 2 2 2 2 2 2 2 2 2 3 4 4 3 3 2 2 3 4 3 3 4 4 4 4
3 3 3 3 3 3 3 3 3 3 2 2 2 1 2 1 1 1 3 3 2 2 2 2 2 2 2 2 2 3 3 3 4 3 4 4 4 4 4 4 5 5 5
2 2 2 3 3 3 3 3 3 3 3 2 2 2 1 1 0 1 3 3 3 2 2 2 2 2 2 3 3 2 2 2 2 3 3 4 4 4 4 5 5 5 4
3 2 2 3 3 3 3 3 3 3 3 3 3 2 2 2 0 2 4 3 2 2 2 2 2 2 4 4 2 2 2 2 1 3 4 4 4 4 4 3 2 3 4
3 2 2 2 3 3 3 3 3 3 3 3 2 3 3 2 1 2 4 3 2 2 1 1 2 3 4 3 2 2 2 2 2 2 2 2 2 1 2 2 2 3 4
3 2 2 2 2 2 3 3 3 3 3 3 2 2 2 2 1 1 3 2 2 2 2 2 1 3 3 3 3 2 3 3 2 2 1 1 1 2 2 2 3 3 3
3 2 2 2 2 2 2 2 2 2 2 2 2 2 2 2 2 1 2 3 4 3 3 2 1 1 2 3 2 2 3 3 2 1 1 1 2 2 2 3 3 3 3
3 3 3 2 2 2 2 2 2 2 2 2 2 2 2 2 1 1 2 2 4 3 3 2 2 1 2 2 1 2 2 2 1 1 2 2 2 2 2 2 3 3 3
4 4 3 3 2 2 2 2 2 2 2 2 2 2 2 2 2 1 1 2 2 3 2 1 2 2 2 2 1 1 1 2 2 2 2 2 2 2 2 2 2 2 3
4 3 3 3 2 2 2 1 2 2 2 3 3 3 3 3 2 3 3 2 2 2 2 2 2 1 1 1 2 2 2 2 2 2 3 2 2 2 2 2 3 3 3
4 3 3 2 2 2 2 1 2 1 1 2 3 3 3 3 2 2 2 2 1 2 2 3 2 2 3 2 2 2 2 2 3 3 3 3 3 3 3 2 3 3 3
4 3 3 2 2 2 2 2 1 1 1 2 3 3 3 2 1 2 2 2 2 2 3 3 3 3 3 3 3 3 3 3 3 3 4 4 3 3 3 3 3 3 4
4 3 3 3 3 3 3 3 2 2 2 2 2 3 2 2 2 2 2 2 2 3 3 3 3 3 3 3 3 3 3 3 3 4 4 4 4 4 4 4 4 4 4
3 3 3 3 3 3 3 3 3 3 3 2 2 1 2 2 2 2 3 3 3 3 3 4 4 4 4 4 4 4 4 3 3 4 4 4 4 4 4 4 4 4 5
3 3 3 3 3 3 3 3 3 3 3 3 3 2 1 2 2 2 3 4 4 4 4 4 4 4 4 4 4 4 4 4 4 4 4 4 4 5 5 5 5 5 5
3 3 3 3 3 3 3 3 3 3 3 3 3 2 2 3 3 4 3 3 4 4 4 4 4 5 5 4 4 4 5 5 5 4 4 5 5 5 5 5 5 5 5
2 3 3 3 2 2 3 3 3 4 4 4 3 2 2 3 3 3 3 4 4 4 5 5 5 5 5 5 5 5 5 6 5 5 5 5 5 5 5 5 5 5 5
3 3 3 3 2 2 3 3 3 3 4 4 3 3 3 3 4 3 3 3 3 4 4 5 5 5 5 5 5 5 6 6 6 5 5 5 5 5 5 5 6 6 6
4 4 3 3 3 3 3 3 3 3 4 3 3 3 3 4 4 4 4 4 4 4 4 5 6 7 8 6 6 6 7 7 7 6 7 7 6 6 6 6 6 7 6
4 4 4 3 3 3 3 3 3 4 4 4 4 4 4 4 4 4 4 4 4 5 5 6 6 7 8 9 8 7 7 7 8 7 7 7 7 7 7 7 6 6 6
4 4 4 3 3 3 4 4 4 4 4 4 4 4 4 4 4 4 4 4 5 5 6 6 7 7 8 8 8 8 7 8 8 9 8 6 7 6 6 6 7 6 6
Wind_Direction
200 201 201 197 198 196 196 199 209 216 222 226 250 281 286 285 277 264 280 296 298 311 317 317 312 314 303 295 288 281 275 272 277 299 308 314 316 314 326 317 323 313 313
200 198 197 189 187 191 192 191 197 210 215 222 232 257 276 279 277 269 271 283 297 306 314 314 314 312 295 298 293 286 283 274 271 291 301 305 304 305 310 309 314 310 305
191 192 191 190 191 195 195 189 196 205 208 222 234 253 273 278 272 275 278 291 299 303 307 302 304 304 297 297 287 285 284 283 281 285 296 301 297 305 305 305 306 306 301
181 186 190 193 193 194 194 195 199 205 209 221 237 258 275 277 270 277 284 293 297 297 294 296 295 291 296 304 294 290 285 280 279 283 293 297 298 307 300 302 303 297 296
177 186 192 195 191 186 187 194 193 199 213 219 228 248 269 287 303 295 291 286 289 289 293 303 318 330 340 328 309 303 297 284 274 274 277 285 293 303 303 300 303 301 296
180 188 191 192 191 189 190 191 188 195 210 213 228 242 264 281 356 329 303 287 285 286 292 298 303 298 325 317 323 317 307 292 286 275 267 271 277 289 295 295 300 301 298
182 182 185 187 193 197 194 192 196 204 213 224 234 241 258 278 50 333 311 293 287 293 291 297 296 289 286 293 281 271 288 294 286 278 276 279 283 292 291 293 294 296 298
178 181 189 189 194 199 197 199 210 212 215 225 228 225 246 276 70 283 297 275 281 288 287 281 293 296 303 308 298 298 305 305 291 285 289 293 301 305 295 286 289 294 295
177 186 199 201 196 198 201 209 216 216 218 225 228 232 240 246 216 276 284 274 279 294 304 316 309 304 333 317 292 282 278 286 343 318 321 325 338 331 316 293 303 299 296
190 198 203 204 204 203 210 218 218 216 222 225 231 237 240 252 235 260 277 259 266 281 291 307 356 336 337 323 271 274 281 295 297 295 296 294 300 314 304 295 298 293 296
192 189 194 201 209 208 212 215 211 210 215 224 230 240 244 258 242 252 284 265 264 273 277 285 316 354 346 332 306 300 320 307 285 287 291 308 324 336 331 318 313 295 289
183 186 196 203 205 210 205 202 205 201 208 227 237 248 255 253 259 251 281 295 303 270 275 276 295 335 328 319 307 352 340 307 292 294 302 317 322 331 331 330 325 311 301
186 190 195 196 202 213 207 196 195 202 217 234 239 251 262 264 247 214 237 272 294 279 281 316 310 275 267 272 329 325 287 281 284 285 296 306 311 313 316 323 325 321 309
193 193 193 191 197 212 216 205 204 207 216 231 240 251 260 262 263 257 243 241 253 267 270 254 233 238 247 284 272 255 269 288 284 280 290 297 302 304 301 307 307 309 305
193 192 194 192 199 205 209 235 233 230 242 245 250 255 259 262 278 304 281 263 273 276 270 253 257 249 255 266 269 270 264 264 268 277 283 286 287 293 300 304 299 297 294
188 189 190 194 201 206 205 214 23 307 333 285 289 284 288 309 310 265 281 302 310 283 253 246 248 245 250 258 265 268 263 262 271 273 272 276 276 278 285 289 286 284 287
195 189 189 200 204 209 218 227 250 296 230 233 243 261 283 298 275 245 242 247 246 226 242 248 250 248 252 258 261 265 272 273 269 270 270 269 269 270 272 274 277 279 280
196 191 196 204 210 216 226 236 244 251 268 271 238 231 245 259 253 243 232 233 246 233 251 255 255 257 255 255 259 264 269 276 272 269 270 271 267 265 266 267 268 273 277
198 201 205 208 214 220 226 235 245 253 261 271 282 255 226 238 234 230 221 244 244 244 250 255 256 255 257 258 258 260 262 265 271 272 274 276 272 266 264 266 267 267 267
204 191 207 213 217 222 226 232 242 250 258 265 270 278 257 249 256 247 247 254 252 250 249 253 254 255 254 256 258 258 259 262 265 264 269 272 273 273 268 265 264 265 265
203 191 193 211 219 225 229 234 239 242 250 261 267 278 275 256 257 257 256 258 259 257 255 255 256 255 253 253 253 253 256 260 260 261 263 266 268 268 272 271 266 264 265
201 197 205 215 222 228 237 244 246 248 254 261 271 267 248 264 267 265 263 262 264 268 267 260 257 254 253 252 253 254 256 258 260 262 264 265 265 267 269 268 265 265 262
199 203 209 217 223 222 234 242 247 252 256 259 264 267 260 266 271 272 273 274 271 270 271 266 260 256 255 254 253 251 251 254 257 260 264 266 265 265 269 268 266 264 259
203 206 212 219 228 235 239 246 250 254 258 259 260 264 266 267 271 271 271 273 273 268 268 267 263 260 258 258 256 253 254 259 261 257 256 259 262 263 262 265 267 264 257
209 213 217 222 228 235 241 245 248 252 255 257 259 261 264 265 268 270 269 269 271 269 268 268 266 262 259 256 256 258 259 259 264 265 259 255 257 258 259 260 261 266 261
214 218 224 228 232 236 239 243 247 250 251 254 258 261 262 263 264 267 269 270 272 271 270 266 266 270 268 263 261 262 263 260 260 263 261 256 255 256 259 256 257 256 258
Height
1525 1526 1527 1528 1529 1529 1530 1530 1530 1530 1530 1529 1529 1528 1527 1526 1526 1525 1524 1524 1523 1522 1522 1521 1520 1519 1519 1518 1517 1517 1516 1515 1514 1514 1513 1512 1511 1510 1509 1508 1506 1505 1504
1522 1523 1524 1525 1526 1527 1527 1527 1528 1528 1528 1527 1527 1526 1525 1525 1524 1523 1523 1522 1521 1520 1520 1519 1518 1517 1517 1516 1515 1515 1514 1514 1513 1512 1512 1511 1510 1509 1507 1506 1505 1504 1503
1519 1520 1522 1522 1523 1524 1525 1525 1525 1525 1525 1525 1525 1524 1523 1523 1522 1521 1521 1520 1520 1519 1518 1517 1516 1516 1515 1514 1514 1513 1512 1512 1512 1511 1510 1510 1509 1507 1506 1505 1504 1503 1501
1516 1518 1519 1520 1520 1521 1522 1522 1523 1523 1523 1522 1522 1522 1521 1521 1520 1520 1519 1518 1518 1517 1516 1515 1514 1514 1513 1512 1512 1511 1511 1510 1510 1509 1509 1508 1507 1506 1505 1504 1503 1501 1500
1514 1515 1516 1517 1518 1518 1519 1519 1520 1520 1520 1520 1520 1519 1519 1518 1518 1517 1517 1516 1515 1514 1514 1513 1512 1511 1510 1510 1509 1509 1509 1508 1508 1507 1507 1506 1505 1504 1503 1502 1501 1500 1499
1512 1512 1513 1514 1515 1515 1516 1516 1517 1517 1517 1517 1517 1517 1517 1516 1515 1515 1514 1514 1513 1512 1511 1510 1509 1508 1508 1507 1507 1506 1506 1506 1506 1505 1505 1505 1504 1503 1502 1501 1500 1499 1498
1509 1510 1511 1511 1512 1513 1513 1514 1514 1514 1515 1514 1515 1515 1514 1514 1513 1512 1512 1511 1511 1510 1509 1508 1507 1506 1505 1505 1504 1504 1503 1503 1503 1504 1503 1503 1502 1501 1500 1499 1498 1497 1496
1507 1508 1508 1508 1509 1510 1510 1511 1511 1512 1512 1512 1512 1512 1511 1511 1510 1510 1509 1509 1508 1507 1506 1505 1504 1503 1502 1502 1502 1501 1501 1501 1501 1501 1501 1500 1499 1499 1498 1497 1496 1495 1494
1504 1505 1505 1506 1506 1507 1507 1507 1508 1509 1509 1509 1509 1509 1509 1508 1508 1507 1507 1506 1505 1504 1503 1502 1502 1501 1500 1499 1499 1499 1499 1499 1499 1498 1498 1497 1497 1496 1495 1495 1494 1493 1492
1501 1502 1503 1503 1504 1504 1504 1505 1505 1506 1506 1507 1506 1506 1506 1506 1506 1505 1504 1504 1503 1502 1500 1499 1499 1498 1497 1496 1497 1497 1496 1496 1496 1496 1496 1495 1495 1494 1493 1493 1492 1491 1491
1499 1499 1500 1501 1501 1501 1502 1502 1503 1503 1504 1504 1504 1504 1504 1503 1503 1502 1502 1501 1500 1499 1498 1497 1496 1495 1494 1494 1494 1494 1494 1494 1494 1494 1493 1493 1492 1492 1491 1490 1490 1490 1489
1496 1497 1497 1498 1498 1499 1499 1500 1500 1501 1502 1502 1502 1501 1501 1501 1500 1499 1499 1498 1498 1497 1496 1495 1494 1493 1493 1492 1492 1492 1492 1492 1492 1492 1491 1491 1490 1490 1489 1488 1488 1487 1487
1494 1494 1495 1495 1496 1496 1497 1497 1498 1499 1499 1499 1499 1499 1498 1498 1497 1496 1496 1495 1495 1494 1494 1493 1492 1491 1491 1491 1490 1490 1490 1490 1490 1490 1489 1489 1488 1488 1487 1486 1485 1485 1484
1491 1492 1492 1493 1493 1494 1495 1495 1496 1496 1496 1497 1496 1496 1495 1495 1494 1494 1493 1493 1492 1491 1491 1490 1489 1489 1489 1489 1488 1488 1488 1488 1488 1488 1487 1487 1486 1485 1485 1484 1483 1482 1482
1489 1489 1490 1490 1491 1492 1492 1493 1493 1494 1494 1494 1494 1493 1493 1492 1492 1491 1491 1490 1489 1489 1488 1488 1487 1487 1487 1487 1486 1486 1486 1486 1486 1486 1485 1484 1484 1483 1482 1482 1481 1480 1479
1486 1487 1487 1488 1488 1489 1490 1490 1490 1491 1491 1491 1490 1490 1490 1490 1489 1488 1488 1487 1487 1486 1486 1485 1485 1485 1484 1484 1484 1484 1484 1483 1483 1483 1483 1482 1482 1481 1480 1480 1479 1478 1477
1484 1484 1485 1486 1486 1487 1487 1487 1487 1488 1487 1487 1487 1487 1486 1486 1486 1485 1485 1484 1484 1483 1483 1483 1482 1482 1482 1482 1481 1481 1481 1480 1480 1480 1480 1480 1479 1478 1477 1477 1476 1475 1474
1482 1482 1483 1483 1484 1484 1485 1485 1485 1484 1484 1483 1483 1483 1483 1483 1482 1482 1481 1481 1480 1480 1480 1480 1479 1479 1479 1479 1478 1478 1478 1477 1477 1477 1477 1477 1476 1475 1474 1473 1472 1471 1470
1479 1480 1480 1481 1481 1482 1482 1482 1482 1482 1481 1481 1480 1480 1479 1479 1479 1479 1478 1478 1477 1477 1477 1476 1476 1476 1476 1476 1475 1475 1475 1474 1474 1473 1473 1473 1472 1472 1471 1470 1469 1468 1467
1476 1477 1477 1478 1479 1479 1479 1479 1479 1479 1479 1478 1478 1477 1476 1476 1475 1475 1475 1474 1474 1474 1474 1474 1473 1473 1473 1472 1472 1472 1471 1471 1470 1470 1469 1469 1468 1468 1467 1466 1465 1465 1464
1474 1474 1475 1475 1476 1476 1476 1476 1477 1476 1476 1475 1475 1474 1473 1473 1472 1472 1471 1471 1471 1470 1470 1470 1470 1469 1469 1469 1468 1468 1468 1467 1467 1466 1465 1465 1464 1463 1462 1462 1461 1461 1460
1471 1472 1472 1473 1473 1473 1473 1473 1474 1473 1473 1472 1471 1471 1470 1470 1469 1468 1468 1467 1467 1466 1466 1466 1465 1465 1465 1465 1464 1464 1463 1463 1462 1461 1461 1460 1459 1459 1458 1457 1457 1456 1456
1468 1469 1469 1470 1470 1470 1470 1470 1470 1470 1469 1469 1468 1467 1467 1466 1466 1465 1464 1463 1463 1462 1462 1461 1461 1460 1460 1460 1459 1459 1458 1458 1457 1457 1456 1455 1454 1454 1453 1452 1452 1451 1451
1465 1466 1466 1466 1466 1466 1466 1466 1466 1466 1465 1465 1464 1464 1463 1463 1462 1461 1460 1459 1459 1458 1457 1456 1456 1455 1455 1455 1454 1454 1453 1453 1453 1452 1451 1450 1449 1448 1448 1447 1447 1446 1446
1462 1462 1462 1463 1463 1463 1463 1463 1462 1462 1462 1461 1461 1460 1459 1459 1458 1457 1456 1455 1454 1453 1453 1452 1451 1451 1450 1450 1449 1449 1448 1448 1448 1447 1446 1445 1444 1443 1443 1442 1442 1441 1441
1458 1458 1458 1459 1459 1459 1459 1458 1458 1458 1457 1457 1456 1456 1455 1454 1453 1452 1451 1450 1450 1449 1448 1447 1446 1446 1445 1445 1444 1444 1443 1443 1442 1442 1441 1440 1439 1438 1438 1437 1437 1437 1436